DJ3OW-13 Weather Reports


Display with metric or nautical units.
time (UTC)temp
F
wind
direction
speed
MPH
gust
MPH
rain 1hr
in
rain 24hr
in
rain mn
in
humidity
%
barometer
mb
20260905172605 64 248 3.0 8.0 0.00 0.00 0.00 66 1024.5
20260905171603 64 270 2.0 4.0 0.00 0.00 0.00 66 1024.3
20260905170601 65 254 4.0 6.0 0.00 0.00 0.00 65 1024.1
20260905165559 65 270 5.0 9.0 0.00 0.01 0.00 64 1024.1
20260905164557 65 317 3.0 7.0 0.00 0.04 0.00 66 1023.9
20260905163555 65 257 2.0 7.0 0.00 0.09 0.00 67 1023.9
20260905162553 65 241 4.0 6.0 0.00 0.13 0.00 67 1023.7
20260905161551 66 260 4.0 7.0 0.00 0.20 0.00 67 1023.5
20260905160549 66 271 4.0 11.0 0.00 0.25 0.00 67 1023.3
20260905155547 66 267 6.0 11.0 0.00 0.32 0.00 67 1023.2
20260905154545 66 230 5.0 11.0 0.00 0.40 0.00 66 1023.1
20260905153543 66 263 5.0 11.0 0.00 0.40 0.00 67 1023.1
20260905152541 66 246 4.0 8.0 0.00 0.41 0.00 67 1023.0
20260905151539 66 270 5.0 9.0 0.00 0.44 0.00 67 1022.9
20260905150537 66 281 4.0 11.0 0.00 0.45 0.00 67 1022.7
20260905145535 66 241 7.0 17.0 0.00 0.48 0.00 66 1022.6
20260905144533 67 258 8.0 16.0 0.00 0.50 0.00 64 1022.5
20260905143530 66 260 7.0 14.0 0.00 0.50 0.00 66 1022.4
20260905142528 66 270 7.0 14.0 0.00 0.51 0.00 66 1022.3
20260905141526 66 274 4.0 7.0 0.00 0.51 0.00 67 1022.4
20260905140525 66 287 7.0 11.0 0.00 0.51 0.00 66 1022.3
20260905135523 66 270 5.0 11.0 0.00 0.51 0.00 66 1022.2
20260905134520 67 236 7.0 16.0 0.00 0.51 0.00 66 1022.0
20260905133519 67 283 6.0 13.0 0.00 0.51 0.00 65 1021.9
20260905132516 68 243 9.0 17.0 0.00 0.51 0.00 63 1021.9
20260905131615 67 274 6.0 11.0 0.00 0.51 0.00 65 1021.7
20260905130632 67 264 6.0 11.0 0.00 0.51 0.00 64 1021.7
20260905125610 68 290 7.0 17.0 0.00 0.51 0.00 62 1021.6
20260905124608 68 305 7.0 14.0 0.00 0.51 0.00 63 1021.6
20260905123606 67 266 6.0 11.0 0.00 0.51 0.00 64 1021.2
20260905122604 69 259 4.0 9.0 0.00 0.51 0.00 63 1021.5
20260905121602 68 249 8.0 16.0 0.00 0.51 0.00 61 1021.3
20260905120620 68 280 5.0 14.0 0.00 0.51 0.00 65 1021.3
20260905115558 67 288 5.0 9.0 0.00 0.51 0.00 64 1021.2
20260905114556 67 273 4.0 9.0 0.00 0.51 0.00 66 1021.3
20260905113554 66 267 4.0 11.0 0.00 0.51 0.00 67 1021.4
20260905112552 65 292 5.0 9.0 0.00 0.51 0.00 67 1021.4
20260905111550 65 275 4.0 6.0 0.00 0.51 0.00 68 1021.4
20260905110608 65 246 4.0 8.0 0.00 0.51 0.00 68 1021.3
20260905105546 65 271 3.0 6.0 0.00 0.51 0.00 68 1021.2
20260905104604 65 253 3.0 9.0 0.00 0.51 0.00 68 1021.2
20260905103542 65 275 5.0 11.0 0.00 0.51 0.00 68 1021.1
20260905102540 64 265 4.0 11.0 0.00 0.51 0.00 68 1021.1
20260905101538 65 263 5.0 11.0 0.00 0.51 0.00 68 1021.2
20260905100536 64 271 3.0 8.0 0.00 0.51 0.00 69 1021.0
20260905095534 65 253 4.0 11.0 0.00 0.51 0.00 68 1020.9
20260905094532 65 291 5.0 13.0 0.00 0.51 0.00 68 1020.9
20260905093530 65 261 5.0 13.0 0.00 0.51 0.00 69 1020.9
20260905092528 65 264 4.0 8.0 0.00 0.51 0.00 69 1020.9
20260905091526 65 252 5.0 13.0 0.00 0.51 0.00 70 1020.8
20260905090524 64 254 4.0 9.0 0.00 0.51 0.00 70 1020.9
20260905085522 65 250 4.0 11.0 0.00 0.51 0.00 71 1020.8
20260905084521 64 281 5.0 9.0 0.00 0.51 0.00 73 1020.6
20260905083518 63 284 2.0 4.0 0.00 0.51 0.00 76 1020.5
20260905082516 63 248 3.0 9.0 0.00 0.51 0.00 76 1020.5
20260905081614 63 262 3.0 6.0 0.00 0.51 0.00 75 1020.4
20260905080612 62 266 4.0 8.0 0.00 0.51 0.00 78 1020.3
20260905075610 62 270 2.0 6.0 0.00 0.51 0.00 79 1020.1
20260905074628 61 254 1.0 4.0 0.00 0.51 0.00 79 1019.9
20260905073606 61 270 1.0 4.0 0.00 0.51 0.00 80 1019.9
20260905072604 61 272 1.0 4.0 0.00 0.51 0.00 81 1019.8
20260905071602 61 312 1.0 6.0 0.00 0.51 0.00 82 1019.8
20260905070600 60 281 2.0 4.0 0.00 0.51 0.00 82 1019.7
20260905065558 60 290 2.0 4.0 0.00 0.51 0.00 83 1019.5
20260905064556 60 285 1.0 4.0 0.00 0.51 0.00 83 1019.6
20260905063554 59 315 1.0 6.0 0.00 0.51 0.00 84 1019.4
20260905062552 58 252 1.0 2.0 0.00 0.51 0.00 86 1019.4
20260905061550 57 248 0.0 2.0 0.00 0.51 0.00 87 1019.3
20260905060548 57 283 1.0 2.0 0.00 0.51 0.00 86 1019.4
20260905055546 57 272 2.0 4.0 0.00 0.51 0.00 86 1019.3
20260905054604 57 279 2.0 4.0 0.00 0.51 0.00 86 1019.2
20260905053542 57 288 2.0 6.0 0.00 0.51 0.00 86 1018.9
20260905052540 58 278 2.0 6.0 0.00 0.51 0.00 85 1018.9
20260905051538 58 256 2.0 6.0 0.00 0.51 0.00 85 1018.8
20260905050536 58 282 1.0 4.0 0.00 0.51 0.00 86 1018.7
20260905045534 58 275 2.0 4.0 0.00 0.51 0.00 85 1018.5
20260905044531 58 272 3.0 6.0 0.00 0.51 0.00 85 1018.4
20260905043529 58 254 2.0 6.0 0.00 0.51 0.00 85 1018.3
20260905042528 58 284 3.0 6.0 0.00 0.51 0.00 85 1018.1
20260905041606 58 290 2.0 6.0 0.00 0.51 0.00 85 1018.3
20260905040523 58 290 3.0 7.0 0.00 0.51 0.00 85 1018.2
20260905035522 58 270 3.0 7.0 0.00 0.51 0.00 84 1018.2
20260905034559 59 255 3.0 9.0 0.00 0.51 0.00 84 1018.2
20260905033518 59 268 3.0 7.0 0.00 0.51 0.00 84 1018.0
20260905032515 59 294 3.0 8.0 0.00 0.51 0.00 84 1018.0
20260905031613 59 263 3.0 6.0 0.00 0.51 0.00 85 1017.9
20260905030611 59 285 2.0 4.0 0.00 0.51 0.00 84 1017.9
20260905025609 59 269 3.0 7.0 0.00 0.51 0.00 85 1017.9
20260905024607 59 272 3.0 8.0 0.00 0.51 0.00 85 1017.8
20260905023626 59 265 3.0 8.0 0.00 0.51 0.00 85 1017.7
20260905022603 59 259 4.0 11.0 0.00 0.51 0.00 85 1017.8
20260905021602 59 293 2.0 4.0 0.00 0.51 0.00 85 1017.8
20260905020600 59 254 3.0 7.0 0.00 0.51 0.00 85 1017.6
20260905015558 59 257 3.0 8.0 0.00 0.51 0.00 85 1017.5
20260905014555 59 235 1.0 6.0 0.00 0.51 0.00 85 1017.5
20260905013553 59 270 2.0 4.0 0.00 0.51 0.00 84 1017.5
20260905012551 59 248 2.0 4.0 0.00 0.51 0.00 84 1017.5
20260905011549 59 280 3.0 6.0 0.00 0.51 0.00 84 1017.4
20260905010608 59 257 2.0 6.0 0.00 0.51 0.00 84 1017.4
20260905005545 59 223 2.0 6.0 0.00 0.51 0.00 83 1017.4
20260905004543 59 290 3.0 7.0 0.00 0.51 0.00 83 1017.6
20260905003541 59 267 3.0 4.0 0.00 0.51 0.00 83 1017.5
20260905002539 59 250 3.0 9.0 0.00 0.51 0.00 83 1017.5
20260905001537 60 276 3.0 6.0 0.00 0.51 0.00 83 1017.5
20260905000535 60 293 2.0 4.0 0.00 0.51 0.00 83 1017.5
20260904235533 60 267 2.0 8.0 0.00 0.51 0.00 83 1017.3
20260904234531 60 299 2.0 4.0 0.00 0.51 0.00 83 1017.2
20260904233529 60 262 2.0 7.0 0.00 0.51 0.00 84 1017.2
20260904232527 60 270 2.0 2.0 0.00 0.51 0.00 84 1017.1
20260904231545 60 248 2.0 4.0 0.00 0.51 0.00 84 1016.9
20260904230543 60 0.0 2.0 0.00 0.51 0.00 85 1016.8
20260904225521 60 216 1.0 2.0 0.00 0.51 0.00 84 1016.9
20260904224519 60 225 1.0 2.0 0.00 0.51 0.00 83 1018.8
20260904223517 61 248 4.0 7.0 0.00 0.51 0.00 81 1016.8
20260904222515 61 266 5.0 8.0 0.00 0.51 0.00 80 1016.5
20260904221613 61 259 5.0 8.0 0.00 0.51 0.00 82 1016.3
20260904220611 61 270 2.0 4.0 0.00 0.51 0.00 87 1016.2
20260904215609 62 251 4.0 7.0 0.00 0.51 0.51 86 1016.1
20260904214632 62 248 4.0 7.0 0.00 0.51 0.51 86 1018.8
20260904213605 62 293 6.0 9.0 0.00 0.51 0.51 84 1015.9
20260904212603 62 267 7.0 15.0 0.00 0.51 0.51 84 1015.8
20260904211601 62 280 5.0 9.0 0.00 0.51 0.51 85 1015.4
20260904210559 62 270 4.0 7.0 0.00 0.51 0.51 86 1015.3
20260904205657 62 275 4.0 8.0 0.00 0.51 0.51 86 1015.1
20260904204555 62 259 3.0 4.0 0.00 0.51 0.51 88 1015.3
20260904203553 62 277 3.0 6.0 0.00 0.51 0.51 87 1015.0
20260904202551 62 264 2.0 6.0 0.00 0.51 0.51 88 1015.0
20260904201549 62 259 3.0 7.0 0.00 0.51 0.51 88 1014.9
20260904200547 62 254 2.0 6.0 0.00 0.51 0.51 88 1014.9
20260904195545 62 269 3.0 7.0 0.00 0.51 0.51 87 1014.9
20260904194543 62 279 4.0 9.0 0.00 0.51 0.51 88 1014.8
20260904193541 62 258 4.0 8.0 0.00 0.51 0.51 90 1015.0
20260904192538 62 279 3.0 7.0 0.00 0.51 0.51 90 1014.8
20260904191557 62 242 3.0 7.0 0.00 0.51 0.51 90 1014.6
20260904190535 62 203 3.0 4.0 0.00 0.51 0.51 92 1014.5
20260904185532 62 211 4.0 7.0 0.00 0.51 0.51 92 1014.5
20260904184530 62 248 2.0 4.0 0.00 0.51 0.51 93 1014.3
20260904183529 62 248 3.0 9.0 0.00 0.51 0.51 93 1014.3
20260904182526 62 248 3.0 4.0 0.00 0.51 0.51 93 1014.1
20260904181545 62 248 4.0 7.0 0.00 0.51 0.51 93 1014.0
20260904180522 62 257 4.0 7.0 0.00 0.51 0.51 93 1013.8
20260904175520 63 254 5.0 8.0 0.01 0.51 0.51 93 1013.6
20260904174518 63 259 3.0 9.0 0.04 0.51 0.51 93 1013.3
20260904173517 63 234 5.0 11.0 0.09 0.51 0.51 93 1013.1